Regional Weather Roundup
Issued by NWS Albany, NY

Home | Current Version | Previous Version | Text Only | Print | Product List | Glossary On
Versions: 1 2 3 4 5 6 7 8 9 10 11 12 13 14 15 16 17 18 19 20 21 22 23 24 25 26 27 28 29 30 31 32 33 34 35 36 37 38 39 40 41 42 43 44 45 46 47 48 49 50
382
ASUS41 KALY 212110
RWRALY

NEW YORK STATE HOURLY WEATHER ROUNDUP
NATIONAL WEATHER SERVICE ALBANY NY
400 PM EST TUE FEB 21 2017

NOTE: "FAIR" INDICATES FEW OR NO CLOUDS BELOW 12,000 FEET WITH NO
SIGNIFICANT WEATHER AND/OR NO OBSTRUCTIONS TO VISIBILITY.

NYZ032-033-038>043-046>054-057>066-NYZ062>081-082-084-212200-
EAST


CITY           SKY/WX    TMP DP  RH WIND       PRES   REMARKS
ALBANY         CLOUDY    43  18  36 S17G26    30.15F
GLENS FALLS    CLOUDY    44  17  33 S8        30.13F
POUGHKEEPSIE   CLOUDY    45  22  40 S8        30.19F
NEWBURGH       PTSUNNY   46  27  46 SW6       30.19F
MONTGOMERY     CLOUDY    47  27  45 S7        30.17F
WHITE PLAINS   CLOUDY    43  23  45 S6        30.21F
ISLIP          CLOUDY    42  30  62 S9        30.25F
NEW YORK CITY  CLOUDY    46  30  53 S13       30.23F
CENTRAL PARK   CLOUDY    44  30  57 MISG      30.25F
$$

NYZ005>009-017-018-044>046-055-056-212200-
CENTRAL


CITY           SKY/WX    TMP DP  RH WIND       PRES   REMARKS
FULTON         CLOUDY    46  22  38 SE5       30.00F
SYRACUSE       CLOUDY    47  21  35 SE9       30.02S
ROME           CLOUDY    41  23  48 SE8       30.07F
ELMIRA         CLOUDY    49  22  34 SW14      30.05S
BINGHAMTON     CLOUDY    42  17  36 S10G16    30.05F
MONTICELLO     MOSUNNY   41  21  45 S10       30.14F
$$

NYZ026>034-041>043-087-212200-
NORTH


CITY           SKY/WX    TMP DP  RH WIND       PRES   REMARKS
WATERTOWN      CLOUDY    46  23  40 S8        29.97F
FORT DRUM      NOT AVBL
OGDENSBURG     FAIR      44  21  39 S5        29.98F
MASSENA        CLOUDY    36  24  62 NE5       30.01F WCI  32
SARANAC LAKE   CLOUDY    42  14  32 SW14      29.97R
PLATTSBURGH    CLOUDY    40  17  39 S12G23    30.02F WCI  33
$$

NYZ001>004-010>016-019>021-085-212200-
WEST


CITY           SKY/WX    TMP DP  RH WIND       PRES   REMARKS
NIAGARA FALLS  CLOUDY    55  34  45 W8        29.92R
BUFFALO        CLOUDY    58  34  40 SW13      29.93R
DUNKIRK        CLOUDY    57  35  43 S14G23    29.94R
JAMESTOWN      CLOUDY    54  32  43 S9        29.97S
WELLSVILLE     PTSUNNY   49  23  36 S13       30.01S
ROCHESTER      CLOUDY    57  29  34 SW13      29.93F
PENN YAN       CLOUDY    49  22  34 S13       30.00F
$$

             KEY
       WCI = WIND CHILL INDEX
       VSB = VISIBILITY
       HX  = HEAT INDEX
$$




USA.gov is the U.S. government's official web portal to all federal, state and local government web resources and services.